Theta_e
291 291 292 291 292 292 292 292 293 294 294 295 294 293 291 290 287 283 283 284 284 286 287 284 287 288 287 287 287 285 286 284 283 285 284 284 284 282 282 284 285 285 286 286 287 288 288 289 289 290 290 291 291 292 292 292 292 292 293 293 294 295 295 296 296 296 296 297 298 298 298 298 298 298
290 290 291 291 291 292 291 291 291 292 292 292 293 292 292 292 289 287 284 285 287 286 286 287 286 286 286 287 286 286 285 282 282 284 284 283 283 282 282 283 284 284 285 286 286 287 288 288 289 289 289 289 290 291 291 291 291 291 292 293 294 294 295 295 295 295 295 296 297 297 297 297 298 298
289 288 289 290 290 291 290 290 290 291 291 291 292 291 292 291 292 290 288 286 288 289 285 286 288 285 285 285 285 285 285 282 282 283 283 283 282 280 282 282 283 284 284 285 286 287 287 288 288 288 289 289 290 290 290 290 290 291 291 292 293 293 294 293 293 294 294 295 296 296 297 297 297 298
288 288 287 288 289 290 289 289 289 289 289 290 290 290 290 289 290 290 289 287 286 287 287 286 286 286 285 285 284 284 284 282 279 283 283 283 280 281 282 282 282 283 283 285 286 287 287 287 287 287 288 288 289 289 289 290 290 290 291 292 292 292 293 292 292 293 293 294 294 295 296 296 296 297
287 287 287 287 288 289 288 288 288 288 289 289 289 289 289 288 288 287 287 285 285 285 287 286 285 285 285 283 284 283 283 282 282 281 282 282 282 282 283 283 282 282 283 284 285 286 287 286 287 287 287 287 288 288 288 288 289 290 291 290 291 291 291 291 291 292 292 293 293 294 295 295 296 296
286 286 286 286 287 288 287 287 287 287 287 287 287 287 287 287 287 287 286 286 285 283 283 284 284 283 284 282 284 283 282 281 282 281 282 282 282 282 283 283 284 282 282 284 285 286 286 286 286 286 286 287 287 287 288 288 289 290 290 289 289 290 290 290 291 291 291 292 293 294 294 294 295 295
285 284 285 285 286 287 286 286 286 287 286 286 286 285 285 286 286 286 287 286 284 283 282 284 282 282 282 283 282 282 282 281 281 281 281 281 282 282 282 283 283 282 282 284 285 285 285 285 285 285 286 286 287 287 288 288 288 288 288 288 288 287 288 289 289 290 291 292 293 293 293 294 294 295
284 284 284 285 285 285 284 285 285 285 286 285 285 284 284 284 285 285 285 286 285 285 281 282 282 282 281 281 282 281 281 280 280 280 281 282 281 282 282 282 283 283 282 283 284 284 284 284 284 285 285 286 286 287 287 287 287 287 287 287 286 286 287 288 288 289 290 291 292 293 293 293 293 294
284 284 284 285 285 284 283 284 284 284 284 284 283 283 283 283 283 283 283 284 285 284 282 281 282 282 281 281 281 280 279 279 280 281 280 281 281 282 282 283 283 282 282 282 282 282 283 283 284 284 285 285 285 286 286 286 286 286 286 285 285 286 286 288 288 289 289 290 290 291 292 292 293 293
284 284 284 284 284 284 283 284 284 284 283 283 283 283 283 282 282 282 282 283 283 284 283 281 279 280 279 279 279 280 280 279 279 279 280 281 281 281 281 282 283 283 283 283 283 282 283 283 283 284 284 285 285 285 285 285 285 284 284 284 284 285 286 288 288 288 288 288 289 289 290 291 292 292
284 284 284 284 284 284 284 284 284 283 283 283 283 283 283 282 282 281 281 281 281 282 282 281 280 278 279 279 277 279 280 280 281 280 279 279 281 281 281 281 282 283 283 282 282 282 282 282 283 283 283 284 284 284 284 284 284 283 283 283 284 285 286 287 287 287 288 288 288 288 289 289 291 291
284 284 284 284 284 284 284 284 285 283 282 282 282 283 283 282 281 281 280 280 280 280 280 279 278 278 278 278 279 279 279 278 278 280 280 280 280 280 282 282 281 282 282 282 282 282 282 283 283 282 282 282 282 283 283 282 282 282 282 283 284 285 286 286 287 287 287 287 287 288 288 288 289 291
283 284 284 284 284 285 284 284 285 284 283 282 282 282 282 281 280 280 280 279 279 279 278 278 278 277 277 277 277 277 277 277 278 280 280 279 281 281 281 281 282 282 281 282 282 282 282 281 281 281 280 281 281 281 281 281 281 282 282 283 284 285 285 286 286 286 286 286 287 287 288 288 288 288
283 284 284 284 284 284 283 284 284 285 285 284 283 282 282 281 280 280 279 278 279 278 277 277 277 276 276 277 277 277 278 280 281 280 279 278 280 280 280 281 281 282 281 280 280 281 282 280 279 280 279 281 281 281 281 281 281 281 282 283 284 284 285 285 285 286 286 286 286 286 287 287 287 287
283 283 283 283 283 283 283 284 285 285 285 284 284 283 283 283 281 279 278 278 278 277 277 277 277 277 276 277 278 278 279 279 279 279 279 279 279 278 279 278 280 282 281 280 278 278 280 279 278 278 279 280 280 281 281 281 281 281 282 283 283 284 284 285 285 285 285 285 285 285 286 286 286 286
283 283 282 282 283 283 283 282 282 284 284 285 284 284 283 283 283 283 280 278 277 277 277 277 277 277 277 277 277 278 278 278 279 279 279 279 279 278 278 279 278 281 282 278 277 277 279 279 278 277 278 279 280 280 280 281 281 282 282 282 283 283 284 284 284 284 284 285 285 285 285 285 286 286
283 283 282 281 282 282 282 282 282 282 282 284 284 284 283 283 283 283 283 282 280 279 278 278 277 278 278 277 277 278 279 280 278 279 278 278 278 279 278 279 279 280 281 278 276 275 277 278 277 277 279 279 280 280 280 281 281 281 281 282 282 283 283 283 283 284 284 284 284 284 285 285 285 285
283 283 282 281 281 282 282 282 281 281 281 282 282 282 281 280 281 283 283 282 280 279 279 279 277 278 279 278 278 280 281 280 278 278 277 279 278 278 278 280 280 281 280 276 275 273 275 277 277 276 278 279 279 279 280 280 281 281 281 281 282 282 282 282 282 283 283 283 283 284 284 284 284 285
283 283 283 282 282 282 282 282 281 281 280 280 280 280 279 279 280 280 280 280 279 278 278 278 278 279 279 279 280 280 281 280 280 281 279 279 279 279 280 278 278 278 279 277 275 271 275 278 276 276 277 278 278 278 279 280 280 280 281 281 281 281 281 282 282 282 282 283 283 283 283 284 284 284
283 283 283 282 282 282 282 282 283 282 281 280 279 278 278 278 279 279 280 281 280 279 278 278 278 279 279 281 280 280 280 280 280 280 280 279 277 276 274 273 275 274 277 276 274 272 273 277 275 275 277 277 276 277 278 279 279 280 280 280 280 281 281 281 281 281 282 282 283 283 283 283 283 283
282 282 282 282 282 281 281 282 284 284 282 279 278 277 276 277 277 277 279 281 281 280 280 280 281 281 282 282 282 282 281 280 280 278 275 273 275 273 272 272 273 273 275 275 275 273 272 275 275 274 275 275 275 275 276 277 278 279 279 279 279 280 280 280 280 281 281 282 282 282 282 282 282 282
282 282 282 282 281 281 281 283 284 284 282 279 278 277 276 275 275 276 277 278 279 280 280 281 281 281 282 282 282 282 282 281 281 276 273 275 275 272 273 271 273 274 274 274 275 272 271 274 275 272 273 274 274 275 276 277 277 277 277 278 278 279 279 279 280 280 281 281 281 281 281 282 282 280
283 281 282 282 282 281 281 283 284 285 282 279 278 277 276 274 274 275 277 277 277 277 277 278 279 280 281 280 279 280 282 282 280 277 276 276 274 272 272 271 271 270 271 274 275 270 271 273 273 272 269 270 273 275 275 276 275 275 275 276 276 277 278 279 279 280 280 280 280 281 281 281 281 279
282 281 281 282 283 283 283 284 285 285 284 279 279 278 275 275 274 277 277 277 277 277 277 278 278 278 279 278 279 279 280 281 278 277 276 274 274 272 271 271 270 270 273 273 274 270 271 272 270 273 270 268 268 273 273 273 274 274 275 275 275 276 277 277 277 278 279 279 279 280 280 280 280 278
280 280 280 280 282 284 283 283 284 285 285 283 279 278 276 276 277 278 276 277 279 278 278 277 277 277 277 276 276 277 276 275 274 274 274 274 274 272 270 270 269 270 272 274 274 271 269 271 269 270 269 270 269 269 271 273 274 274 275 275 274 275 276 276 276 276 277 278 278 279 279 279 279 278
279 279 279 279 281 283 283 283 284 285 285 284 279 278 280 280 280 277 277 278 278 277 277 276 276 275 273 273 273 273 273 273 272 273 273 273 273 273 273 272 270 269 270 273 273 271 269 268 269 268 268 268 268 270 269 270 272 273 275 275 275 275 275 275 275 275 276 276 276 277 277 279 280 280
279 279 278 279 281 282 283 283 284 285 285 284 281 281 281 281 281 279 276 277 277 276 276 275 273 273 272 271 271 271 271 272 272 272 272 273 273 273 273 273 273 272 272 273 273 271 269 268 270 268 267 268 267 268 268 268 270 274 273 274 274 275 275 275 274 275 275 275 275 277 277 278 278 279
279 278 278 278 281 282 283 283 284 284 284 283 283 282 282 281 281 276 275 275 275 274 274 273 272 271 272 272 271 271 272 272 271 271 271 272 272 272 272 272 271 272 271 271 271 271 270 269 269 269 269 267 266 266 266 270 271 271 271 273 273 273 274 274 274 274 274 275 275 275 275 274 275 276
279 279 280 280 281 282 283 283 283 284 284 285 284 282 281 281 278 275 275 274 274 273 272 272 271 271 271 272 272 273 272 272 272 271 271 271 271 271 271 270 270 270 270 270 270 270 270 269 268 269 269 268 267 267 268 268 269 269 271 270 269 273 273 273 274 273 274 274 274 274 274 274 274 275
281 281 281 281 281 281 282 281 281 281 282 284 283 281 281 279 277 275 274 274 273 272 272 271 271 270 271 271 272 272 271 270 269 269 268 268 267 267 267 267 267 268 268 269 269 270 270 271 270 270 269 269 269 268 268 268 267 269 270 269 270 271 273 273 273 273 273 272 273 273 274 275 274 275
280 280 280 279 280 280 281 282 282 282 282 282 281 279 279 279 276 274 274 273 272 272 271 271 270 270 270 271 270 269 269 268 269 269 268 267 267 267 267 267 266 267 267 268 269 270 271 271 271 271 268 268 269 269 269 269 267 267 268 270 270 267 270 272 272 272 273 273 273 273 274 274 274 275
280 278 280 280 279 279 279 279 280 280 280 281 279 278 278 277 275 276 276 275 273 272 272 271 269 268 268 267 268 268 267 267 268 269 267 267 267 267 266 266 265 267 267 267 268 269 270 270 270 271 271 269 267 268 269 268 267 267 267 269 269 270 271 270 271 272 273 272 272 271 272 273 273 273
278 277 277 276 276 276 277 277 277 278 279 279 278 277 277 276 274 274 273 272 271 270 269 268 267 267 267 266 266 266 266 266 267 268 266 267 266 266 266 265 266 266 265 266 267 268 269 269 270 270 270 270 270 269 267 265 267 268 267 268 269 269 270 271 271 271 272 271 270 270 270 272 273 273
276 276 275 275 275 275 276 276 276 277 278 277 276 276 277 274 273 272 272 271 270 269 268 268 267 265 265 265 265 265 265 265 266 267 266 265 266 264 265 264 265 266 266 266 267 267 268 268 269 269 269 269 269 269 268 266 266 267 268 269 269 268 270 271 271 271 271 270 269 268 269 270 271 273
275 275 274 274 275 275 275 276 276 276 277 275 274 274 273 273 272 271 271 270 269 268 267 267 266 265 265 264 264 264 264 264 264 265 266 266 266 265 265 265 265 265 265 265 266 267 268 267 268 267 267 268 267 268 271 269 266 267 268 268 269 268 268 270 270 270 270 270 270 268 267 269 269 272
276 275 274 274 274 275 275 275 276 276 275 272 272 272 271 271 270 270 269 268 267 267 267 266 264 265 265 265 264 264 264 264 264 264 264 264 264 265 265 264 265 265 266 265 266 267 267 267 267 265 264 264 264 264 266 272 271 268 266 266 268 268 268 269 269 269 269 268 269 268 266 266 268 271
276 275 274 274 275 275 275 276 276 275 273 271 270 270 270 269 269 269 268 269 267 266 266 265 264 265 265 264 264 264 264 264 264 264 264 265 264 264 264 264 264 265 265 265 267 266 267 266 267 266 264 263 263 262 264 268 270 272 270 267 267 268 268 268 267 267 268 268 268 268 268 268 268 270
276 275 274 274 274 275 275 276 275 273 272 271 270 269 269 269 270 269 268 267 267 266 266 265 264 264 264 264 263 263 263 264 264 264 264 264 263 263 264 264 264 265 265 265 266 266 267 266 266 266 265 263 262 262 262 266 267 268 271 269 267 267 268 267 266 265 266 268 267 268 269 268 268 270
276 275 275 274 275 275 275 274 273 272 272 270 269 270 270 269 268 266 266 267 267 266 265 264 264 264 264 264 264 264 263 263 263 263 264 264 264 263 264 264 264 264 264 264 266 266 267 266 266 265 265 264 263 263 264 263 263 267 269 271 269 267 266 267 265 266 266 266 267 269 269 270 271 274
277 276 276 275 275 275 274 273 272 272 271 271 270 271 269 267 265 265 267 267 267 265 264 264 264 264 264 264 264 264 263 263 263 264 263 264 264 264 263 264 264 264 264 264 264 265 266 266 266 266 266 266 266 267 266 266 266 267 267 268 271 269 267 267 266 266 266 267 268 267 266 267 266 268
277 276 275 275 275 274 273 272 272 271 271 271 270 270 268 266 265 265 265 265 265 264 264 264 264 263 263 263 263 263 262 263 263 263 263 263 263 263 263 263 263 264 264 263 264 264 265 267 268 269 268 267 267 267 265 263 262 264 265 267 270 271 271 271 269 267 266 267 267 266 265 265 265 266
277 276 275 275 274 273 273 272 272 271 270 271 270 269 267 267 266 267 266 266 265 264 264 264 264 263 263 263 263 263 262 262 262 262 263 263 263 263 263 263 263 264 264 263 264 265 267 268 268 267 267 266 265 263 261 262 261 263 264 265 267 269 271 271 271 272 269 268 266 264 265 265 266 265
276 276 275 274 273 272 272 271 271 271 270 270 269 268 266 265 266 266 265 264 264 264 264 264 264 263 263 263 263 263 263 263 263 262 262 263 263 262 263 263 264 264 264 264 265 266 266 267 267 266 266 265 264 264 262 262 263 263 263 264 265 266 267 270 270 271 272 272 272 270 268 266 264 262
276 275 274 273 272 271 271 271 270 270 269 269 268 267 266 266 265 265 264 264 264 263 264 264 263 263 263 263 262 262 263 263 263 262 262 262 263 263 263 263 264 264 264 264 265 265 266 266 266 266 264 264 264 263 262 262 262 263 263 263 264 264 264 265 266 268 269 271 271 272 273 273 273 273
275 274 272 271 270 270 270 270 269 268 268 268 267 267 266 266 265 264 264 264 264 264 263 263 263 263 262 262 261 261 262 263 263 262 263 263 263 263 263 264 264 264 264 264 264 264 265 265 265 265 264 264 264 264 263 263 263 263 263 262 262 263 263 264 263 263 264 265 268 271 271 272 273 273
Wind_Speed
10 10 11 10 7 7 6 6 5 6 6 6 6 9 11 10 9 8 9 10 9 10 10 8 9 9 7 7 6 6 5 4 1 0 2 2 2 2 6 7 6 6 5 4 4 4 4 4 5 6 8 8 9 9 10 11 12 12 12 12 12 12 13 13 14 14 15 15 16 16 16 16 16 17
10 9 9 9 8 7 7 7 6 6 7 6 7 8 8 8 9 9 10 9 9 8 10 7 7 10 9 7 6 5 4 7 2 2 3 3 3 4 8 9 8 7 6 5 4 4 4 3 4 6 7 7 8 9 9 10 10 10 10 11 12 12 12 13 14 14 15 16 16 16 17 17 18 19
9 11 11 10 9 7 8 7 7 6 6 7 7 6 5 5 6 8 8 6 5 7 10 9 7 10 10 8 7 5 4 6 4 4 5 5 4 6 8 10 10 9 7 6 5 4 4 4 4 5 6 7 7 8 8 9 10 10 11 11 11 12 13 14 15 16 16 17 18 18 19 19 19 19
9 11 12 12 10 8 8 8 8 8 7 7 7 7 6 6 5 4 6 8 6 5 6 8 8 10 10 9 8 7 5 5 7 5 5 4 5 7 6 10 11 9 7 6 5 5 4 4 4 5 6 7 8 8 9 10 10 11 11 11 12 13 14 15 16 17 17 18 18 19 19 19 19 20
11 13 13 12 12 9 10 9 8 8 9 8 7 6 6 7 6 7 7 8 6 4 3 7 7 9 10 8 9 9 7 7 7 6 5 5 5 5 5 5 9 8 7 6 5 5 4 3 5 6 6 7 7 8 9 9 10 10 10 11 13 14 14 15 16 16 16 17 17 17 18 18 19 19
10 11 12 12 11 10 11 9 10 10 10 10 9 8 9 8 8 8 8 8 8 9 6 6 7 7 9 8 10 9 9 7 5 5 5 5 5 5 5 5 5 8 7 6 5 4 3 4 5 6 6 6 8 8 9 9 10 10 11 12 13 13 14 14 14 14 15 15 16 16 17 18 18 19
9 8 9 10 9 6 10 10 9 8 10 9 10 9 8 9 8 8 8 7 7 9 8 8 8 8 8 8 8 8 5 4 4 5 6 6 5 5 6 5 4 7 7 6 5 4 4 5 6 6 7 7 9 10 10 10 11 11 12 12 12 12 13 13 13 14 14 16 17 17 18 18 19 20
11 13 11 10 9 8 10 9 9 8 8 8 7 7 6 7 9 9 8 7 8 8 9 9 9 8 9 7 7 7 5 6 6 6 5 6 6 6 6 6 5 5 8 7 6 6 5 5 6 7 8 9 10 11 12 12 12 12 11 12 12 12 13 12 13 14 15 17 17 18 19 19 20 20
13 12 14 10 12 11 9 9 9 8 11 8 6 7 6 6 6 6 7 8 7 9 9 8 7 7 7 7 7 8 7 7 7 7 7 7 8 8 7 5 5 7 9 7 6 5 5 5 6 8 9 11 12 12 12 12 11 11 11 12 12 13 12 13 14 15 16 16 17 18 18 19 20 20
9 13 12 10 15 12 13 11 10 9 11 7 7 9 6 6 6 7 8 7 7 7 8 9 10 8 9 8 7 8 8 8 8 8 8 8 8 8 8 8 6 5 4 3 3 3 4 3 6 9 10 12 12 11 11 11 11 11 11 12 12 12 13 14 14 15 15 16 17 18 18 18 19 20
13 8 8 10 15 16 15 13 14 13 12 8 7 6 6 7 7 8 8 8 9 8 8 8 8 9 8 9 8 8 8 7 7 8 9 9 9 8 7 6 5 4 3 3 4 4 4 7 7 8 11 12 12 12 11 11 12 11 12 12 12 13 13 14 14 15 16 17 17 18 18 18 19 20
16 12 10 9 12 15 14 14 12 18 16 7 10 7 7 7 7 7 6 7 8 8 9 9 9 9 10 8 7 8 8 7 7 8 8 8 9 8 7 5 5 4 3 3 3 5 6 5 5 7 8 8 10 11 11 11 11 12 12 12 13 14 14 14 15 16 17 18 18 18 19 19 20 21
11 10 10 13 15 16 23 27 23 24 21 16 11 8 8 8 7 5 5 7 7 7 7 7 7 8 9 10 10 11 11 12 10 10 8 6 5 4 4 5 5 5 4 4 4 3 1 3 4 4 4 5 7 8 10 10 12 11 11 13 14 14 14 15 16 16 17 18 19 19 19 20 21 22
16 15 13 12 23 23 23 23 23 16 18 17 14 13 12 11 10 8 7 7 7 7 7 7 9 9 10 11 12 12 11 9 7 8 8 6 5 4 3 3 4 5 4 3 3 2 0 3 5 4 4 4 5 5 6 5 7 12 15 15 15 15 15 16 16 16 17 18 19 19 20 21 22 23
15 14 14 11 18 20 21 20 19 19 20 23 16 9 8 13 24 19 14 7 9 8 6 7 7 8 9 10 10 10 10 9 9 8 7 6 5 5 4 3 4 5 5 3 1 2 1 2 5 5 5 5 5 6 6 10 13 14 15 15 15 15 15 15 16 16 17 17 18 19 20 21 23 24
13 13 12 10 9 10 14 14 14 18 20 21 22 16 15 17 18 22 22 20 11 8 6 7 8 8 9 10 11 10 11 10 9 8 7 7 6 5 3 3 3 5 6 4 2 5 3 3 5 6 6 5 6 6 9 12 15 15 14 14 15 15 15 16 15 16 17 18 19 20 21 22 23 24
14 12 11 9 10 12 24 18 13 13 14 19 20 18 16 17 22 21 17 12 6 8 16 13 10 11 9 10 10 11 12 11 10 9 8 8 7 6 5 4 4 6 6 3 3 5 5 3 5 6 6 5 5 7 10 15 16 15 14 14 16 15 15 15 16 17 18 19 19 20 21 22 22 24
15 15 11 11 12 12 14 14 15 13 13 13 14 13 11 12 15 19 19 18 13 6 6 9 13 7 6 7 9 11 12 13 11 10 9 9 8 8 6 4 3 3 3 3 3 4 5 5 6 7 6 5 6 7 10 14 15 15 15 15 15 15 15 15 17 17 17 18 18 20 21 22 23 24
15 15 13 14 14 14 16 14 17 15 13 15 12 9 11 10 12 12 13 13 10 9 7 5 5 6 7 6 9 10 10 9 7 7 8 8 7 5 3 1 2 3 4 5 5 5 3 4 5 6 5 5 6 7 10 15 16 15 15 15 15 16 17 16 16 16 17 17 17 19 20 21 23 23
13 13 12 12 13 13 15 17 24 19 13 18 18 13 10 10 9 10 11 13 10 8 8 6 5 5 7 8 9 10 9 8 6 5 5 4 4 6 5 4 3 4 4 7 7 5 4 5 5 6 4 5 7 7 7 11 15 14 14 14 16 18 16 15 15 15 16 17 17 18 19 20 22 24
12 11 11 11 11 12 13 19 27 25 17 16 18 15 13 12 9 9 10 15 16 14 11 9 10 10 11 12 14 15 14 9 7 7 8 7 8 8 5 4 4 5 4 5 7 4 5 5 5 5 4 6 7 7 7 7 10 13 13 17 18 16 15 15 15 15 16 16 17 18 19 20 21 26
10 13 21 16 12 12 13 21 28 28 22 19 18 17 15 17 12 11 10 9 11 17 14 13 12 13 14 14 14 14 15 14 12 10 8 9 9 7 6 5 4 3 4 5 6 5 6 4 3 4 4 6 6 7 7 6 6 9 14 17 17 15 15 15 16 16 16 16 16 17 18 18 20 16
10 10 16 22 16 13 14 24 28 30 25 20 19 16 12 13 15 14 15 14 13 13 11 11 11 11 14 11 10 11 17 16 14 8 7 8 8 7 6 5 2 2 5 6 8 5 5 4 4 2 2 3 4 4 5 6 6 8 8 9 9 12 14 15 16 17 16 15 16 16 17 18 18 12
8 9 10 16 25 20 21 25 30 30 28 21 16 10 12 14 13 13 13 14 12 13 13 13 14 14 14 11 9 10 11 11 12 11 9 6 6 5 5 5 5 3 0 6 7 5 3 3 4 2 2 1 2 4 6 7 8 8 8 8 7 9 12 13 12 14 14 14 16 17 17 17 17 12
8 9 10 10 20 26 24 26 29 30 32 25 17 15 13 13 12 15 13 18 20 13 13 12 13 12 8 6 6 8 10 9 8 7 6 6 6 6 6 6 6 5 3 4 4 3 4 2 3 3 3 3 4 4 7 8 8 8 8 7 8 7 7 8 8 9 10 13 15 16 16 16 17 15
7 9 9 9 17 26 25 26 29 32 33 33 13 13 16 17 24 18 12 12 15 13 13 13 12 9 6 8 7 8 7 7 7 7 6 6 6 6 6 6 6 5 5 4 6 4 4 5 4 3 3 4 6 6 6 7 8 7 6 7 8 7 7 8 8 8 8 8 8 9 12 18 20 22
7 6 8 9 21 26 27 28 31 32 34 31 20 23 23 22 27 19 10 10 14 13 13 13 11 9 9 8 7 6 7 7 7 7 6 6 7 6 6 6 5 5 3 2 5 5 6 5 4 4 4 4 6 5 6 5 4 4 7 7 6 6 7 8 8 7 7 9 10 15 16 17 19 20
9 8 12 11 23 27 29 31 32 30 31 23 30 28 29 26 25 11 10 9 10 11 10 10 9 10 9 9 7 7 7 7 8 7 7 7 7 6 5 5 4 4 4 4 5 6 7 6 6 6 6 6 6 6 5 5 6 7 8 8 7 8 6 6 8 9 8 8 9 9 9 10 10 11
9 12 17 21 26 28 30 31 31 27 31 34 30 31 31 26 13 11 13 10 9 11 11 9 9 9 7 8 7 8 8 8 8 7 6 5 5 4 3 2 2 3 4 5 6 7 7 7 6 6 7 7 7 7 6 7 6 8 8 11 8 3 6 9 7 7 8 8 9 10 10 10 11 10
16 19 22 26 27 27 25 21 17 16 18 26 28 29 29 17 15 13 11 11 12 10 12 10 12 9 7 8 8 9 9 8 7 7 7 7 5 4 3 3 3 4 5 6 7 8 8 8 8 7 7 8 8 8 7 6 7 6 8 9 12 12 5 5 9 9 9 9 9 9 10 10 12 12
13 18 19 16 19 18 26 27 23 21 19 19 20 19 19 16 12 10 12 9 8 11 12 11 9 7 7 7 8 8 8 7 7 7 6 6 6 6 5 4 4 5 6 7 7 8 8 8 8 9 8 7 7 7 6 6 8 8 8 8 9 10 9 10 10 11 12 12 11 10 10 10 11 11
10 11 15 18 14 15 15 17 14 14 13 14 13 13 14 11 12 16 16 13 7 11 9 8 10 8 8 7 7 7 7 7 6 7 6 6 6 6 6 5 5 5 5 7 7 8 8 8 8 8 8 7 7 6 5 6 8 9 9 8 10 11 10 10 11 11 11 14 14 12 11 11 12 12
8 10 11 11 12 12 13 14 13 13 12 10 13 15 10 12 12 13 14 14 12 9 11 11 10 8 7 7 6 7 7 7 7 7 6 6 6 6 6 5 5 5 6 6 6 6 7 7 8 8 8 7 8 7 6 8 8 7 9 9 8 10 9 9 10 11 11 12 13 14 14 13 12 12
10 12 11 12 13 13 13 13 14 13 12 11 13 13 13 12 12 13 12 11 11 10 11 12 10 8 8 7 7 7 7 7 6 6 7 6 7 6 6 5 4 4 4 4 4 5 5 6 6 7 7 8 9 9 9 9 9 6 7 8 8 9 10 10 10 11 10 10 13 15 16 16 15 13
11 10 10 12 12 12 12 12 13 13 13 11 11 12 11 12 13 13 12 11 10 11 11 11 9 8 8 8 8 8 7 7 7 7 7 5 6 5 5 5 4 5 5 5 5 4 4 4 4 5 5 6 6 8 14 13 8 9 7 7 7 8 11 10 11 11 11 11 10 13 15 16 18 15
11 11 12 12 13 13 13 12 12 11 11 10 11 12 13 13 11 13 12 11 11 11 13 11 9 9 8 8 8 7 7 7 7 7 7 6 5 5 4 4 4 5 5 5 5 4 4 4 4 4 4 5 5 6 3 16 17 8 7 8 6 8 10 12 12 13 13 11 11 12 13 16 16 17
14 10 11 11 12 13 13 11 11 12 12 12 11 11 12 12 11 10 11 13 12 10 11 9 9 8 9 8 8 7 7 7 7 7 6 6 5 5 5 5 5 5 6 5 5 4 4 4 4 3 4 5 5 7 6 0 8 11 8 9 10 8 9 10 12 13 13 13 12 12 13 15 18 18
14 14 12 12 10 10 10 10 10 10 12 13 13 13 13 13 12 12 13 12 13 9 10 9 9 8 8 8 9 8 7 6 6 6 6 6 6 5 5 5 5 5 5 4 4 5 4 4 4 3 3 5 6 7 8 4 1 5 8 9 10 11 9 11 12 13 14 12 11 13 14 17 18 17
9 12 11 11 10 11 11 10 11 12 11 12 12 13 13 11 12 13 13 13 13 12 9 9 9 9 9 8 8 8 8 7 7 6 6 5 5 5 5 5 5 5 5 5 5 6 5 5 5 4 4 5 6 7 8 10 10 6 8 15 13 13 13 11 13 13 13 13 13 13 13 15 20 30
11 13 14 11 10 11 10 10 10 10 10 11 11 11 11 12 10 11 12 12 12 9 8 9 12 11 9 9 8 7 7 8 7 6 6 6 5 5 5 5 5 5 5 6 6 6 6 6 5 4 4 6 7 8 10 12 13 13 11 14 21 17 13 12 14 14 15 13 13 15 17 16 17 16
9 10 11 9 10 10 10 10 10 10 11 11 11 10 10 11 12 10 8 9 12 10 9 8 9 8 8 8 7 7 7 6 6 6 6 6 5 6 6 6 5 6 6 6 6 6 6 6 4 6 7 8 9 8 9 10 12 11 9 8 9 15 18 16 15 15 16 17 15 16 18 17 18 17
10 9 9 9 11 11 11 11 11 10 10 11 11 11 12 13 11 17 17 16 12 11 9 9 8 8 8 7 7 7 7 7 6 6 6 6 5 6 7 6 6 6 6 6 6 6 4 3 3 5 7 6 6 6 9 10 12 13 12 11 9 11 16 18 19 21 20 17 18 18 18 18 14 18
10 9 12 11 10 11 11 11 10 11 11 11 11 11 10 10 12 13 11 11 10 10 9 9 8 8 8 7 7 6 6 6 6 6 6 6 5 5 5 6 6 6 6 5 5 5 5 6 5 6 6 6 6 7 10 11 11 13 14 14 13 11 11 16 20 23 25 31 29 25 20 18 16 17
9 10 10 10 10 10 10 10 10 9 10 11 12 10 9 11 11 10 8 9 9 9 9 9 8 8 8 7 6 6 5 5 6 6 6 6 6 5 5 5 6 6 5 5 5 5 5 5 6 6 6 7 7 8 11 11 12 12 13 14 14 15 17 14 12 15 19 23 26 27 32 33 30 33
7 8 9 9 9 9 10 10 10 10 11 11 12 13 12 9 9 9 12 10 7 8 8 8 8 7 7 7 7 7 5 6 6 5 5 5 5 6 6 6 5 5 5 5 4 5 5 5 6 6 7 8 8 9 10 11 13 14 14 15 16 15 14 14 16 17 14 12 13 21 25 27 30 31
Wind_Direction
195 201 195 204 199 192 186 196 193 184 182 184 178 184 186 184 170 174 196 204 193 191 190 179 190 183 178 168 160 164 192 121 134 319 264 259 258 255 273 283 287 284 281 280 272 282 297 303 318 325 331 335 332 334 343 346 347 345 342 338 337 338 337 335 337 334 332 330 329 330 330 330 329 327
194 196 193 203 207 183 186 196 189 187 186 181 186 192 201 204 196 180 188 198 189 173 188 193 170 179 178 172 168 170 182 123 169 207 246 248 251 268 278 279 273 270 272 266 261 265 282 302 316 320 319 322 325 334 339 339 338 336 334 331 333 336 336 337 336 334 331 329 327 324 323 323 322 321
190 196 197 199 208 181 192 190 186 187 182 187 185 192 193 205 222 197 196 191 178 167 177 191 172 168 175 168 163 162 181 156 180 218 223 224 224 254 262 255 250 252 251 250 241 243 263 287 298 302 307 314 322 328 330 330 333 331 328 329 333 334 336 337 336 334 332 330 328 324 322 320 319 318
195 196 200 199 202 182 187 192 189 186 189 186 185 185 188 199 205 213 204 211 162 167 175 171 161 168 168 169 170 175 179 156 192 221 218 217 225 240 229 223 234 240 247 251 250 250 258 283 297 305 314 319 324 326 324 324 324 324 327 333 334 337 338 339 338 336 333 331 326 324 320 317 315 314
199 204 204 201 202 178 189 193 185 187 186 184 185 178 181 187 185 190 198 199 139 132 134 153 160 163 163 174 184 184 182 184 192 204 224 225 228 233 236 221 216 234 248 253 252 251 271 298 309 315 318 317 316 317 316 318 321 324 332 336 338 340 340 339 337 333 329 324 321 318 316 315 314 312
198 202 202 202 196 187 196 188 188 187 182 184 182 185 183 187 180 192 187 196 163 165 162 161 153 161 176 180 185 189 187 187 188 203 216 226 229 233 237 233 212 212 241 246 247 262 278 290 294 298 302 304 306 309 315 318 324 331 339 341 342 341 337 333 330 326 322 318 316 316 314 312 311 311
185 192 204 203 185 172 197 201 195 183 185 183 185 178 178 182 179 179 193 183 178 164 173 166 161 171 180 191 177 183 185 184 191 210 220 225 225 230 235 235 228 218 240 249 252 256 265 269 278 290 300 308 312 314 319 329 335 339 340 339 337 334 329 326 325 321 317 315 314 314 313 311 311 312
184 198 201 202 177 177 198 199 191 191 186 181 180 166 168 179 172 172 178 193 180 167 157 180 177 173 169 190 176 171 177 187 200 211 222 223 232 231 223 228 230 214 232 243 242 244 251 266 281 298 309 313 315 320 328 334 335 334 334 332 330 326 323 322 318 314 314 314 313 313 313 313 315 314
184 189 201 192 166 172 197 196 196 187 188 185 170 173 168 169 158 152 173 178 178 171 171 160 171 166 173 177 176 174 178 190 202 206 214 221 224 227 225 222 223 224 231 234 233 239 255 277 295 305 308 315 321 324 326 325 325 325 325 325 322 320 317 315 314 316 316 316 314 314 315 316 316 315
194 193 193 175 177 181 198 198 190 177 186 175 184 178 163 159 145 156 169 174 173 175 173 159 156 173 170 173 188 188 190 185 187 195 208 218 225 221 217 209 200 204 200 196 196 213 242 249 300 300 306 310 312 314 314 314 316 318 319 318 314 311 313 314 314 314 314 313 313 313 315 316 316 315
217 219 201 170 182 194 201 196 186 180 182 187 185 169 155 149 153 164 170 170 172 176 167 165 173 170 180 177 179 184 192 202 200 191 189 205 208 210 209 194 183 187 198 205 221 244 273 279 281 295 303 303 301 302 306 311 312 314 312 308 307 310 315 314 314 314 314 313 313 313 313 314 313 312
217 210 207 202 197 199 193 192 173 173 178 176 188 183 159 161 160 165 160 162 172 175 176 175 173 175 172 178 171 158 176 192 210 212 207 196 185 193 190 191 174 173 185 199 181 203 224 241 276 303 304 299 300 303 306 306 305 300 298 299 306 311 313 313 313 314 314 312 310 311 311 311 311 311
208 211 207 210 212 212 210 207 202 199 191 171 179 178 168 162 164 155 165 176 173 176 171 177 177 173 176 178 171 175 188 196 198 186 195 207 197 198 189 176 175 182 185 191 194 202 248 299 299 306 308 303 306 299 295 290 284 288 297 306 310 312 311 310 312 311 310 309 309 310 311 311 311 311
217 218 214 218 219 216 216 215 212 203 196 198 188 167 167 165 159 164 167 175 179 171 178 185 176 179 190 182 182 183 191 187 166 168 188 195 189 191 201 184 181 174 180 197 217 215 272 309 298 292 291 290 283 282 287 289 298 298 302 305 307 306 306 306 307 306 305 307 308 309 309 309 308 308
213 214 211 210 215 215 213 213 208 204 201 202 208 209 201 177 161 165 167 179 164 178 191 178 184 191 181 181 174 177 168 174 180 182 186 187 182 195 186 168 140 173 176 192 255 276 269 274 277 274 265 262 262 263 268 278 284 288 294 297 299 299 298 298 298 299 301 303 304 305 305 306 306 307
214 210 206 200 188 189 199 197 196 202 205 207 207 203 199 202 205 192 176 159 171 198 175 183 198 179 187 168 170 170 167 173 176 184 184 185 186 187 201 180 162 138 150 165 230 276 270 217 238 255 254 252 253 256 264 273 276 278 284 289 290 289 288 291 293 297 299 301 302 304 306 308 308 308
218 209 195 193 189 200 205 201 195 191 195 205 206 208 203 205 204 207 222 262 308 179 164 176 179 192 174 166 180 174 169 165 168 174 181 183 185 193 194 193 161 149 147 169 235 266 265 213 223 246 249 251 251 255 257 260 266 272 276 281 284 284 287 290 295 299 300 302 303 307 309 308 308 307
220 213 192 193 195 189 187 190 191 183 185 184 191 196 199 203 207 209 210 211 225 258 218 173 186 186 175 176 162 166 164 167 172 175 180 178 181 190 193 180 179 152 129 194 233 262 251 231 222 238 254 249 247 249 257 261 266 271 273 275 278 281 287 294 295 296 297 300 305 306 308 308 307 306
221 219 206 200 200 190 187 186 181 178 174 180 177 174 192 197 200 201 199 198 195 197 206 228 204 169 167 153 151 157 167 171 170 173 168 172 176 173 167 205 252 249 223 204 207 230 243 196 213 239 250 248 251 256 260 259 262 263 263 267 274 282 288 291 293 295 298 301 302 303 305 306 307 306
219 218 203 197 198 190 193 184 182 180 167 185 187 176 173 181 190 200 200 188 178 178 190 196 186 168 166 158 152 156 157 159 155 143 149 150 138 150 177 215 227 228 231 198 207 229 242 234 230 245 252 261 258 254 251 253 254 253 256 265 278 286 287 290 294 295 296 298 299 300 302 305 305 305
210 203 190 193 196 187 194 185 189 186 168 187 190 190 176 179 173 189 185 187 183 181 184 166 165 166 166 158 154 157 160 158 160 156 153 167 167 177 193 213 216 227 202 191 210 233 248 239 225 245 254 251 258 259 252 244 237 237 254 274 279 281 285 288 289 291 293 295 298 300 300 301 302 303
209 209 209 205 197 189 192 183 190 190 182 191 194 194 188 187 182 179 169 165 182 181 177 173 172 177 176 166 162 164 167 170 175 170 178 175 180 195 195 192 195 204 190 210 195 204 239 231 226 244 263 254 248 242 239 220 221 244 267 268 271 275 278 282 286 287 289 293 296 298 299 300 302 302
213 203 211 207 203 189 182 182 191 193 190 195 194 192 177 185 189 180 166 165 165 170 170 177 175 182 180 174 174 178 179 183 176 177 186 188 188 191 194 187 168 239 238 184 174 204 240 194 242 169 263 231 218 201 216 203 243 260 261 270 270 272 279 284 286 287 288 293 296 296 295 296 301 299
205 202 196 199 202 193 188 190 195 196 193 193 194 174 184 184 189 165 161 165 160 167 171 174 180 184 182 180 173 180 188 189 169 184 183 177 183 188 187 174 180 206 105 153 181 218 264 224 230 195 214 246 252 179 205 252 254 254 261 265 268 277 284 285 287 287 288 293 295 294 294 295 299 293
193 199 196 190 199 201 197 197 198 197 202 198 194 193 194 192 160 154 167 176 170 169 170 173 178 180 173 139 137 158 165 161 164 162 171 181 191 187 181 176 185 217 235 171 175 224 236 229 241 231 234 227 245 250 245 242 255 252 253 259 273 280 279 284 288 289 285 283 284 288 288 290 293 292
196 191 186 186 188 198 200 200 198 202 205 201 189 192 186 174 172 174 174 167 172 169 165 169 177 168 141 153 149 159 159 154 152 156 165 180 189 193 192 181 179 196 226 208 200 232 255 261 236 233 247 241 255 246 264 260 253 246 248 257 260 265 270 281 281 279 285 287 288 288 293 294 291 287
195 169 171 178 178 192 199 203 206 205 206 205 199 188 181 178 172 167 167 166 169 167 170 169 169 160 161 152 156 152 159 156 151 160 167 177 186 192 192 188 193 211 235 205 202 232 238 249 250 224 245 256 265 267 252 263 269 271 279 267 261 264 269 273 277 281 285 289 287 290 291 286 283 282
183 178 193 176 182 191 198 204 208 207 206 204 199 190 187 181 174 158 163 166 171 167 163 166 160 163 164 165 160 167 160 156 151 156 163 174 183 185 193 188 196 218 242 243 240 238 239 245 249 242 241 250 259 266 272 269 274 290 296 289 276 265 253 256 281 286 280 277 284 291 291 291 285 284
191 180 177 180 188 193 199 204 206 207 208 206 197 190 185 180 172 164 168 167 158 170 173 166 158 157 152 161 159 155 148 139 140 149 157 165 170 176 182 169 179 213 234 250 249 245 240 237 242 243 243 245 249 261 265 276 293 296 304 310 299 253 294 288 271 269 286 288 286 285 283 283 284 280
186 182 187 191 195 198 201 203 202 204 206 207 196 184 179 182 176 169 160 163 171 171 170 163 170 162 144 152 150 145 142 143 153 156 160 160 165 170 184 187 217 220 235 244 244 243 241 240 237 240 245 246 249 262 271 287 289 290 293 286 289 300 263 286 301 300 292 290 284 282 281 278 277 277
185 189 187 192 193 196 199 197 198 201 199 204 190 184 181 184 174 154 167 162 157 164 169 171 162 144 134 132 134 148 151 148 156 155 163 164 174 172 183 180 201 196 213 224 237 238 238 239 241 242 242 250 252 255 270 280 284 285 278 281 291 289 300 308 302 304 307 301 296 288 281 278 277 272
186 175 187 189 192 194 196 198 195 198 198 196 180 180 178 171 164 172 167 159 146 166 160 139 140 125 133 135 143 141 142 147 152 157 163 174 169 168 173 175 203 194 201 207 223 237 243 250 250 250 248 250 257 267 273 269 269 275 278 275 272 277 284 295 301 303 305 305 303 298 292 287 286 286
172 171 179 184 185 188 192 192 192 193 190 184 179 181 169 168 164 166 172 172 165 147 140 147 143 136 129 133 133 135 137 152 159 165 164 180 167 170 174 185 191 185 197 206 208 216 222 233 244 253 263 270 272 274 276 275 261 256 266 271 278 279 290 291 293 298 304 303 298 301 299 295 288 283
172 180 177 182 182 184 188 190 191 186 185 178 178 181 173 161 158 165 165 161 158 149 151 151 147 135 138 141 147 146 148 151 159 176 168 178 173 169 173 181 201 198 209 221 217 224 225 233 242 249 251 249 248 244 243 253 262 258 256 270 275 282 287 295 291 292 297 297 301 301 300 298 292 285
177 179 178 182 182 184 186 191 190 185 184 170 169 169 166 164 159 157 154 155 145 146 149 153 141 139 146 148 148 151 154 154 158 170 174 176 175 169 172 178 200 197 206 217 223 226 231 249 256 265 263 260 259 246 215 220 251 256 264 263 270 282 292 296 296 295 297 296 290 286 288 289 290 290
186 187 181 184 186 182 185 187 186 183 175 161 158 154 157 163 159 153 150 148 148 151 154 149 143 147 148 146 149 149 151 154 161 165 171 174 171 164 171 189 203 209 210 215 225 226 231 248 257 272 287 295 293 294 279 213 214 239 269 279 276 283 290 294 294 296 297 294 289 282 280 284 286 289
196 186 188 183 179 180 187 180 178 175 161 154 153 153 152 153 155 152 146 148 156 156 152 138 145 147 143 143 139 144 152 160 164 165 166 167 157 162 172 197 203 214 214 221 218 233 233 240 252 261 280 295 288 285 275 217 221 238 259 277 286 279 282 288 291 288 283 283 282 278 277 284 284 283
193 190 185 191 184 185 182 178 172 164 163 162 159 157 157 154 154 153 152 155 157 139 145 141 139 141 144 145 147 152 159 162 159 159 161 159 154 170 182 194 199 206 214 223 222 230 232 233 244 250 264 272 289 285 299 294 247 252 254 266 279 284 282 281 279 277 281 278 274 277 283 284 283 281
186 187 181 184 185 189 184 175 167 167 163 158 161 163 159 153 152 149 158 162 159 154 141 142 144 150 149 149 151 153 155 158 161 163 157 158 163 168 181 191 204 213 207 223 220 220 228 230 238 247 254 266 270 285 299 300 288 275 271 267 273 280 275 272 280 282 281 285 287 287 283 280 279 279
188 188 189 179 175 182 177 169 164 162 157 158 160 162 155 154 148 151 158 161 159 148 137 138 146 145 145 152 151 148 147 155 156 154 153 154 163 172 185 198 204 208 205 215 217 222 222 233 242 246 263 273 282 289 291 286 285 282 271 259 248 250 265 280 283 285 286 283 290 297 298 298 291 290
173 178 183 167 177 171 168 162 160 159 162 161 157 150 148 145 147 152 140 140 150 140 139 136 141 142 145 145 149 149 151 155 150 149 150 152 163 178 194 197 205 211 207 222 218 226 231 238 249 273 281 283 286 290 288 287 284 286 281 275 254 263 267 271 276 282 283 289 293 293 291 292 295 299
179 168 163 167 172 168 163 165 162 159 156 161 160 154 153 157 157 154 155 154 143 140 124 137 140 142 143 144 148 150 151 154 151 152 155 158 171 187 198 206 207 214 208 219 225 230 247 267 279 268 268 268 274 277 276 279 284 289 291 292 285 266 267 267 265 265 271 283 292 289 288 288 287 288
179 170 176 176 161 161 162 161 159 156 157 157 157 152 140 130 143 150 147 146 139 141 142 142 146 145 148 146 151 152 148 145 146 150 152 168 175 187 193 204 207 212 221 234 245 247 254 256 255 261 262 260 259 261 269 276 282 287 294 298 297 298 283 271 268 267 267 267 267 268 268 275 285 280
178 173 167 162 157 153 151 151 150 150 150 155 157 143 129 142 150 146 138 139 146 143 145 142 144 144 146 143 140 139 144 146 147 151 160 171 186 194 203 211 215 223 230 238 246 251 255 259 260 255 259 258 258 263 269 278 283 287 292 294 298 302 300 301 289 272 266 261 262 263 266 267 267 270
165 155 154 150 146 142 141 142 144 149 154 152 155 157 151 135 131 129 151 147 131 134 131 137 141 141 139 142 147 153 153 155 150 150 161 175 188 200 210 217 225 231 233 236 248 260 262 261 264 259 257 257 254 258 268 273 280 290 290 294 294 294 296 301 301 298 289 276 257 264 269 273 276 278